Wind_Speed
79 78 78 77 76 76 76 77 78 79 79 80 80 80 80 79 77 75 75 75 72 71 71 73 73 72 72 72 72 72 71 70 69 69 68 67 68 68 67 66 66 66 66 66 66 65 65 65 65 64 63 62 61 61 62 62 62 62 60 58 57 56 54 51 47 43 41 40 39 38 35 32 30 28 24 22 20 18 18 17 16 15 14 15 17
81 80 80 79 78 78 79 79 80 81 81 81 82 82 79 78 76 74 74 73 72 72 72 73 73 73 74 74 73 72 71 70 70 69 68 69 69 68 67 66 66 67 67 66 66 65 65 65 65 64 63 62 62 63 63 63 62 61 59 58 57 55 52 48 44 41 39 38 37 34 32 31 29 26 23 20 19 18 18 17 16 15 14 15 17
82 82 82 81 81 81 81 82 82 83 83 83 82 79 77 76 75 73 73 74 74 73 73 74 73 73 74 74 73 73 73 72 72 71 70 70 69 68 67 67 67 67 67 66 66 65 66 66 65 64 63 63 64 64 64 63 62 61 58 57 56 52 49 44 41 39 37 36 34 32 30 30 28 24 21 19 18 18 18 17 16 15 15 16 17
84 84 84 83 84 84 84 84 84 84 84 83 80 78 77 76 74 73 74 73 73 73 75 75 74 75 75 74 74 74 74 75 73 72 71 70 69 68 67 67 67 68 67 67 66 66 67 66 65 65 65 65 64 64 64 63 61 59 57 56 53 49 45 40 38 37 35 34 32 30 29 28 26 23 20 18 18 18 18 17 16 15 15 16 18
86 86 86 86 86 85 85 85 85 84 83 81 79 79 78 77 76 76 75 74 74 75 77 77 76 76 75 75 75 76 76 74 72 71 71 69 68 68 68 68 68 68 67 67 67 67 67 67 66 66 66 65 64 63 63 62 59 57 56 54 50 46 41 37 36 35 33 31 30 29 28 26 23 21 19 17 18 18 18 17 15 15 15 16 18
87 87 87 87 87 86 86 86 84 83 82 80 79 79 79 78 78 77 75 76 77 77 78 79 77 76 75 76 76 75 74 72 72 71 70 70 69 68 68 68 68 68 68 68 68 68 67 67 67 67 66 65 63 63 61 60 57 56 54 51 47 42 37 35 34 32 30 30 29 28 26 23 22 20 18 17 18 18 17 16 15 15 16 17 18
88 88 88 87 87 86 85 85 84 83 81 80 80 80 78 77 76 76 77 78 80 81 81 79 77 77 77 76 74 73 72 72 72 71 71 70 69 68 68 69 68 68 68 68 68 68 68 68 67 66 65 63 62 60 58 57 55 54 51 47 42 37 34 33 31 30 29 29 29 27 24 22 20 19 18 18 18 17 17 16 15 15 16 18 18
87 87 87 87 86 85 85 84 83 83 83 83 82 80 78 77 78 79 80 82 82 82 81 78 77 77 76 74 72 71 72 72 72 72 71 70 70 69 68 68 68 68 68 68 68 69 69 68 67 65 63 61 59 57 56 55 53 51 47 42 38 34 32 30 29 30 29 28 27 24 22 20 19 18 18 18 18 17 16 15 15 16 17 19 19
87 88 88 88 88 87 86 85 84 84 84 82 81 80 80 80 81 81 81 81 80 79 79 78 76 74 71 71 71 71 72 73 74 73 72 71 70 69 68 68 68 69 69 69 70 70 69 67 65 63 60 58 56 55 55 53 50 47 42 38 35 32 29 28 29 31 29 26 24 22 21 20 19 19 19 19 18 16 15 15 15 16 18 20 20
88 88 88 88 88 88 87 86 86 85 82 80 80 81 81 81 80 81 81 80 78 76 76 75 73 70 69 70 71 72 73 74 74 73 72 71 70 69 68 68 69 70 70 71 71 69 66 64 62 60 57 56 55 54 52 49 45 41 38 36 33 29 27 28 30 31 29 26 24 23 21 19 19 19 19 19 18 16 14 14 15 17 19 21 21
85 84 84 85 84 83 83 81 79 79 79 78 78 77 78 76 75 76 77 77 75 72 72 72 70 69 68 69 71 72 73 73 72 72 71 70 70 70 69 69 70 71 71 70 68 66 63 61 59 57 56 54 53 51 48 44 39 37 36 34 31 27 26 29 31 30 28 27 25 23 21 19 19 19 20 19 18 16 15 14 15 17 19 22 23
78 79 80 80 79 78 78 75 74 74 74 73 71 70 70 69 69 70 71 71 70 70 71 70 68 68 68 69 71 72 71 71 72 72 72 71 71 71 71 71 71 70 69 68 65 63 61 58 56 55 54 52 49 46 42 38 35 35 35 32 29 26 27 30 31 29 28 27 24 23 22 20 20 20 20 19 19 18 17 16 15 17 19 22 24
76 74 72 72 72 70 70 71 70 69 68 67 66 67 68 68 70 70 68 69 70 70 69 68 68 69 68 70 72 72 72 73 74 73 73 72 72 73 72 71 70 69 67 64 62 60 58 56 54 52 49 46 42 40 37 35 35 35 33 30 28 26 28 30 30 29 27 26 24 23 22 21 21 21 20 20 20 20 21 20 18 19 20 22 24
74 68 66 67 67 64 62 63 64 64 65 66 69 71 72 72 72 70 70 72 73 71 68 68 70 70 71 73 74 74 75 76 75 74 74 74 74 73 70 68 67 65 63 61 59 57 55 52 50 46 42 39 37 36 35 35 35 33 30 29 28 27 29 31 31 29 27 25 23 23 22 22 23 22 21 20 21 22 23 25 24 24 24 24 24
74 69 70 68 68 67 64 67 70 71 73 76 80 81 79 76 74 73 74 76 75 70 69 71 72 73 75 78 78 77 76 75 73 73 73 73 72 70 67 65 64 61 59 56 54 52 51 48 45 40 37 36 36 36 35 35 33 31 29 30 29 29 31 32 31 29 27 25 23 23 22 23 24 23 22 21 22 23 25 27 27 27 27 26 25
89 84 83 81 83 83 81 84 85 84 86 90 93 91 89 87 83 80 78 78 75 72 74 77 77 78 80 80 79 76 74 73 72 71 70 69 68 67 65 61 58 56 53 51 49 48 47 44 40 36 35 35 36 36 36 33 31 30 30 30 30 30 32 32 30 28 29 26 23 24 23 23 24 23 23 22 23 25 26 27 28 28 28 28 26
98 98 98 97 97 97 96 95 93 93 95 98 98 96 93 91 89 87 86 84 80 79 80 80 80 82 82 79 76 73 71 70 69 67 66 66 66 63 59 55 53 51 48 47 46 45 43 41 37 34 34 36 36 36 34 31 30 30 31 31 31 32 32 31 29 29 31 27 22 24 23 23 24 24 23 22 23 26 27 28 28 29 28 29 28
94 97 98 97 98 100 100 98 98 99 99 97 95 93 91 91 90 90 89 86 82 81 81 81 82 82 80 74 71 70 68 67 65 64 64 64 62 59 54 50 48 47 45 45 44 42 41 38 35 35 36 36 35 34 33 31 29 30 31 32 33 35 34 31 30 31 32 27 22 23 24 23 24 24 23 22 23 26 28 28 28 28 29 29 30
94 96 97 98 100 101 100 99 99 97 96 93 91 90 90 91 89 87 85 81 78 78 79 80 78 75 73 69 68 67 66 65 64 64 63 61 59 54 50 47 46 45 43 43 42 40 38 35 36 38 38 35 33 33 32 32 30 31 32 34 37 38 35 32 31 31 31 27 22 23 24 24 24 24 23 23 24 26 28 29 28 28 29 30 31
95 97 96 97 98 98 98 97 95 93 91 90 90 92 91 89 86 83 80 76 75 75 76 74 69 67 67 65 65 66 65 65 63 61 58 57 55 51 49 46 43 42 42 43 40 37 35 35 38 40 38 35 33 33 33 33 32 34 36 38 40 38 35 32 30 31 30 26 21 23 25 24 24 24 23 24 25 28 30 31 30 29 29 29 29
91 91 91 92 92 92 92 90 90 90 89 87 88 88 85 83 80 79 77 76 74 71 69 67 66 66 64 63 65 65 63 63 61 57 55 54 53 51 48 43 40 41 41 40 37 36 36 37 40 40 38 35 34 34 34 35 36 37 38 39 38 35 33 30 29 29 28 25 22 23 25 24 24 24 23 24 26 29 32 33 30 29 30 30 29
87 87 87 88 87 86 86 86 87 87 85 83 82 81 79 77 76 77 77 75 72 67 65 68 71 70 67 67 67 64 61 60 59 57 55 54 52 50 46 43 42 42 40 37 36 37 39 40 41 40 38 37 37 37 37 37 37 37 36 36 35 32 29 27 27 28 28 26 24 24 25 25 24 24 24 24 26 28 32 34 30 27 30 31 29
85 85 85 85 84 83 83 82 81 80 81 81 81 80 78 77 78 78 76 73 70 68 70 74 74 71 70 68 65 61 60 59 58 57 55 54 52 49 47 47 45 42 38 36 37 39 42 45 45 42 39 39 39 38 37 36 35 35 35 34 31 28 27 26 28 30 28 27 25 25 25 25 24 24 24 25 25 27 30 31 28 26 27 27 27
82 83 83 83 82 81 80 79 78 79 80 80 80 80 80 80 79 76 73 70 70 71 74 75 75 72 69 66 62 61 61 60 58 57 56 56 56 54 52 49 47 43 39 38 41 44 48 50 48 43 39 38 38 37 35 35 34 34 33 30 27 26 26 26 29 31 29 28 26 25 25 26 25 25 26 26 27 27 29 29 26 25 25 26 26
75 75 76 77 78 78 77 77 76 76 77 78 80 82 82 80 76 73 72 72 73 75 75 74 73 70 65 62 63 61 59 59 59 60 61 60 58 56 54 50 48 46 44 43 47 50 51 51 47 41 39 38 38 37 35 35 34 33 31 28 26 25 24 25 28 31 30 28 27 25 26 26 26 26 27 28 29 29 30 30 28 25 24 25 25
66 65 65 68 69 71 73 73 71 71 74 77 79 80 79 77 75 74 73 74 76 76 75 73 72 68 64 64 65 62 59 60 62 64 63 60 56 54 53 50 49 49 48 49 52 53 51 51 45 41 40 39 38 37 37 37 35 32 30 28 27 25 25 26 29 32 31 29 29 27 26 26 26 26 27 30 31 32 33 35 33 29 26 25 25
61 59 57 59 62 65 66 66 68 69 72 73 73 74 73 73 72 71 71 72 74 74 73 72 69 67 66 65 63 63 64 64 64 64 63 61 58 56 55 53 52 52 52 54 54 50 47 46 42 41 41 38 38 38 37 38 36 33 32 32 31 29 29 30 30 33 33 31 31 30 29 27 26 26 27 30 33 34 35 37 36 33 29 26 23
55 55 55 60 64 63 61 62 63 64 66 66 67 67 66 66 67 68 69 71 72 72 71 70 69 67 65 64 63 64 64 62 62 62 62 61 59 59 58 59 59 58 57 55 50 45 43 42 40 41 42 40 40 39 38 38 37 34 34 36 36 31 30 30 30 34 35 32 32 33 33 31 28 25 25 28 32 34 36 37 38 37 33 28 23
54 58 62 65 65 64 63 63 62 61 63 64 64 65 66 67 68 69 69 70 71 71 71 71 70 67 65 65 64 62 60 60 61 61 61 60 59 60 61 62 62 59 55 52 48 46 45 44 44 46 46 44 41 39 39 39 37 36 37 39 37 32 30 30 31 34 36 33 31 34 35 33 29 25 22 24 27 30 33 36 39 39 35 29 25
63 68 68 67 67 69 68 65 65 66 67 68 69 71 71 72 71 71 70 70 71 72 73 72 70 68 67 68 66 64 63 63 62 60 60 61 62 62 60 58 56 54 52 51 50 48 46 45 45 47 46 44 42 41 41 39 38 38 39 39 36 33 31 30 31 34 35 33 31 33 35 34 30 26 22 21 21 23 27 32 37 38 35 31 28
72 72 70 69 71 73 70 68 68 70 72 72 72 73 72 72 72 72 72 71 72 72 71 71 71 71 72 71 70 69 68 65 61 59 61 63 61 59 58 55 52 53 53 53 51 48 46 45 44 45 45 45 45 44 42 40 40 39 37 37 36 34 32 30 31 34 34 33 32 32 35 35 32 29 27 24 22 21 22 28 36 39 37 34 31
69 70 70 70 72 72 73 72 73 74 74 73 71 71 72 72 72 72 72 72 72 72 71 72 72 73 73 71 71 70 68 65 60 57 58 58 57 56 56 55 55 55 56 55 53 49 47 45 46 47 48 47 44 41 40 40 39 37 35 36 37 34 32 31 31 33 35 33 33 34 35 36 35 33 31 29 27 25 23 25 33 40 40 36 33
65 69 71 70 70 71 73 75 76 75 72 70 70 71 72 72 71 70 71 72 72 72 71 71 70 70 70 68 67 67 66 63 60 57 51 50 53 55 56 58 59 59 58 57 55 51 48 47 47 48 47 43 38 36 38 37 35 36 36 35 36 34 33 31 30 32 35 33 33 34 35 37 37 35 34 32 29 28 27 25 29 37 41 38 35
63 66 68 67 69 71 73 74 73 71 68 68 70 71 72 71 70 70 71 71 70 69 69 68 66 65 65 64 64 63 61 59 58 58 53 53 56 56 56 59 60 60 59 58 55 51 49 49 49 48 47 44 40 37 37 36 35 37 38 36 33 32 31 30 29 30 33 33 32 33 35 38 38 37 35 32 27 27 28 27 27 32 39 41 36
63 66 68 68 70 71 72 72 70 69 68 68 69 70 71 70 69 69 69 68 66 65 65 64 62 61 61 61 61 59 57 55 55 56 56 59 61 56 53 56 57 57 57 56 54 52 51 51 50 49 49 48 45 42 40 40 40 40 39 35 30 29 29 29 28 28 31 32 31 32 34 38 38 38 37 32 25 25 27 27 29 29 34 40 37
65 68 69 69 69 69 70 70 69 69 69 69 69 69 69 67 67 66 65 64 62 61 60 60 58 57 57 57 57 56 55 54 54 54 56 58 59 55 51 51 54 54 52 52 52 51 50 49 48 48 47 47 46 45 42 43 43 42 39 35 29 27 28 27 27 27 30 31 30 31 35 39 39 38 37 31 24 24 26 27 29 30 31 37 39
66 66 67 67 67 66 66 66 67 68 68 69 69 68 67 65 65 63 62 60 58 57 56 55 54 53 53 54 54 53 52 52 53 52 54 55 55 55 53 49 49 50 48 46 47 48 47 45 45 47 47 47 49 48 45 44 43 41 38 34 29 27 27 26 26 26 28 29 29 30 36 39 39 38 35 30 25 24 27 29 30 32 31 33 37
61 62 61 62 62 61 61 62 64 65 66 66 65 64 64 63 62 60 57 55 53 52 51 51 50 49 50 51 50 50 50 51 53 52 52 53 53 54 54 51 48 48 47 43 43 46 47 45 46 47 45 45 48 48 46 46 44 40 35 31 28 27 26 26 25 25 26 28 27 30 36 39 39 39 35 30 27 26 28 31 31 30 29 31 33
53 56 55 54 55 55 57 59 61 62 62 61 60 60 59 59 57 55 51 48 46 46 47 47 47 46 46 48 48 48 48 50 53 55 55 56 56 57 57 57 53 50 50 47 45 46 47 46 46 44 40 39 42 43 43 44 43 40 34 31 30 28 27 27 26 25 27 27 27 29 35 40 40 40 38 34 31 29 30 30 29 27 25 27 28
49 52 52 51 51 53 56 59 61 62 61 58 57 56 56 54 51 48 45 42 40 41 42 43 43 43 43 44 46 47 47 48 51 54 57 59 60 62 62 62 61 58 57 54 48 45 44 44 44 44 40 38 39 39 40 41 41 39 35 33 33 30 29 29 28 28 28 28 28 29 33 38 40 40 39 37 34 33 32 30 29 28 26 26 27
53 52 52 52 53 55 57 59 61 61 60 58 56 54 52 50 46 42 40 38 37 36 37 39 40 40 40 41 43 45 45 46 48 51 53 55 57 60 61 62 63 63 63 61 52 45 43 42 43 44 41 37 37 37 38 38 37 38 38 37 35 32 31 30 29 29 29 30 31 32 33 34 36 38 39 39 37 37 35 32 32 32 29 28 29
57 55 54 55 55 55 55 56 58 58 57 55 53 51 48 45 41 38 37 36 34 33 34 35 36 37 37 38 40 42 43 44 46 47 48 50 52 54 56 57 58 59 60 61 58 54 51 47 44 43 39 34 33 35 38 38 36 37 38 39 36 34 32 31 30 30 31 32 33 35 36 35 34 35 37 38 39 41 39 36 34 33 32 31 32
59 58 56 54 54 53 51 50 53 53 52 50 49 48 46 42 39 36 35 35 33 32 31 32 33 34 35 36 37 38 40 41 42 44 44 45 47 48 50 51 52 53 55 57 58 59 58 55 51 47 43 38 36 37 39 38 37 37 37 38 37 35 34 32 31 32 33 34 34 35 36 37 37 36 36 37 40 43 42 39 37 35 34 34 35
62 60 56 53 54 52 47 45 48 49 48 48 48 46 44 41 38 36 34 34 34 32 31 31 31 31 32 33 34 35 36 38 39 39 41 41 42 43 45 46 47 48 50 52 53 55 55 55 56 55 54 51 48 46 45 43 41 37 35 37 38 37 36 34 33 33 34 34 35 37 37 37 36 36 37 37 39 43 43 41 40 39 37 35 34
64 62 60 58 56 51 45 44 45 46 48 49 48 46 43 41 38 36 34 34 34 33 32 31 30 30 30 30 31 32 33 35 36 36 37 38 38 39 40 42 43 44 46 47 49 50 51 52 54 55 55 55 53 52 50 47 44 39 35 36 38 38 38 36 35 35 36 36 36 38 39 39 38 37 37 37 38 41 43 43 43 41 40 38 35
65 64 62 59 56 51 48 45 45 46 48 48 47 45 43 41 40 38 36 35 34 34 33 32 31 30 29 29 30 30 31 32 33 34 34 35 36 36 37 38 40 41 43 44 45 46 47 49 51 52 53 52 50 50 50 49 46 42 38 38 39 40 40 38 36 36 37 37 38 39 40 40 41 39 38 38 39 40 41 43 44 43 43 42 39
57 56 54 51 51 52 51 48 47 48 47 45 45 45 43 43 43 41 38 37 36 35 34 33 32 31 30 30 29 29 30 31 32 32 32 33 34 34 35 35 37 38 40 41 42 43 44 46 47 49 50 52 51 49 50 50 49 47 43 41 42 42 42 40 38 38 38 38 39 41 41 42 42 41 41 40 41 40 40 43 45 44 45 44 40
47 47 46 46 47 49 50 49 48 46 45 45 46 46 46 45 45 44 42 40 38 37 36 35 33 32 32 31 30 30 30 30 31 31 31 32 32 33 33 33 34 36 37 39 40 41 42 43 44 46 48 51 53 52 51 51 50 48 46 44 44 44 45 44 42 41 40 40 40 41 42 43 44 43 42 41 41 42 41 42 45 46 45 44 40
45 45 45 45 45 46 46 46 46 45 46 47 48 48 47 48 48 45 44 42 41 39 38 37 36 34 33 32 31 31 31 31 31 30 30 31 31 31 32 32 33 33 35 36 38 38 39 40 41 43 44 47 51 54 54 53 51 49 47 46 46 46 46 45 43 43 43 42 42 42 41 42 44 45 44 42 41 42 42 43 45 46 46 44 42
45 45 44 45 46 46 45 45 45 46 46 46 48 50 49 50 50 46 44 44 43 42 40 39 38 37 35 34 33 32 31 31 31 31 31 31 31 31 31 32 32 32 33 34 35 36 37 38 39 40 41 44 47 50 54 55 54 52 49 48 48 47 46 45 42 40 41 43 43 43 43 42 44 45 45 44 42 42 43 44 45 47 47 45 44
42 42 42 43 43 44 43 43 43 43 42 44 49 52 53 54 51 47 46 45 44 43 42 41 40 39 38 36 34 33 33 32 32 32 32 32 32 32 32 32 32 33 33 33 34 34 35 36 37 38 39 40 43 46 50 54 56 55 53 51 50 49 48 47 45 41 39 41 43 44 44 44 44 46 45 43 43 43 44 45 46 47 47 45 44
Wind_Direction
285 285 286 286 287 287 288 288 289 289 290 290 291 291 292 292 293 293 292 293 294 294 294 295 296 296 296 298 298 298 299 299 300 300 300 300 301 301 301 301 302 302 302 302 302 303 303 304 305 305 305 306 306 305 305 306 307 308 309 309 308 308 308 309 309 307 306 306 307 306 304 303 303 303 301 299 296 293 290 288 287 283 274 266 258
285 285 286 287 287 288 288 288 289 289 290 291 292 292 291 292 292 292 293 293 294 295 295 296 296 296 297 298 298 298 299 299 299 299 299 300 300 300 300 300 300 301 301 301 301 301 302 303 303 304 304 304 304 304 304 305 306 307 307 307 307 307 308 308 307 305 304 305 305 304 301 301 301 301 299 297 293 289 288 285 284 279 271 264 257
285 285 286 287 287 287 288 288 289 289 290 290 291 292 291 291 292 292 292 293 294 295 296 296 295 297 298 298 298 298 298 298 298 298 298 299 299 299 299 299 299 299 299 299 300 300 301 302 302 303 303 303 303 303 303 304 305 306 306 306 307 307 307 306 305 303 303 304 303 301 299 300 300 299 298 296 289 286 285 283 281 275 269 262 257
284 285 286 286 286 287 287 288 288 289 289 289 289 290 291 291 291 292 293 293 294 294 295 295 295 297 298 297 298 298 298 298 297 297 297 297 298 298 297 298 298 298 298 298 299 299 300 301 301 302 302 302 303 302 303 304 305 305 305 306 306 306 305 304 302 302 302 302 301 298 298 299 298 297 298 293 286 283 282 280 278 273 266 261 257
283 284 285 286 286 287 287 287 288 288 288 288 288 289 290 290 290 291 292 292 294 294 294 295 295 296 297 297 297 297 297 296 296 296 296 296 296 296 296 297 297 297 297 298 299 299 300 300 301 301 302 302 301 301 302 303 304 304 304 305 305 305 303 301 300 300 300 300 299 297 297 297 296 296 296 289 282 280 279 278 275 270 265 261 256
284 285 285 286 286 286 287 287 287 287 287 287 288 289 289 288 289 291 291 292 293 293 294 295 295 296 296 296 296 295 295 294 295 295 294 294 295 295 295 296 296 296 297 297 298 299 299 300 301 301 301 301 301 301 302 303 304 303 304 304 304 303 301 299 298 298 298 299 298 296 295 294 294 295 292 285 279 277 276 276 273 268 264 261 257
285 285 286 286 286 286 286 286 286 286 286 286 287 289 289 289 289 290 291 292 292 293 294 294 294 295 295 295 294 293 293 293 294 294 293 293 293 294 294 295 295 296 296 297 298 299 299 300 300 300 300 300 300 301 302 303 303 302 303 303 303 301 299 298 297 296 297 299 298 296 295 293 293 291 285 280 275 273 272 273 271 266 264 262 259
286 286 286 286 285 285 285 285 285 286 285 285 287 287 288 288 290 291 291 291 291 292 292 292 293 294 293 293 292 292 292 293 293 293 293 293 293 293 294 295 295 296 296 297 298 299 299 299 300 299 299 300 300 300 301 302 302 301 302 302 301 299 298 296 295 296 299 300 298 295 292 290 290 285 278 274 271 268 267 269 268 266 263 262 261
287 287 286 286 285 285 284 284 284 285 285 286 287 286 287 288 289 290 290 290 291 291 291 291 293 293 291 291 291 291 291 292 292 292 292 292 292 293 294 294 295 295 296 297 298 298 298 298 299 299 298 298 299 300 301 301 300 300 300 300 299 299 296 294 295 297 298 295 291 288 285 286 287 281 273 270 266 263 262 264 265 265 263 262 261
289 288 287 286 285 284 284 283 283 284 284 286 287 288 288 288 289 289 288 288 290 291 290 290 291 290 290 290 291 291 291 291 291 291 291 292 292 292 293 294 294 295 296 297 297 298 298 298 298 298 297 297 298 299 299 299 299 298 298 298 298 297 293 294 295 295 293 287 284 285 284 284 282 274 269 267 264 260 258 259 261 264 264 262 261
290 290 289 287 286 285 285 285 285 285 285 287 289 290 290 289 289 289 288 287 288 289 289 289 289 288 288 289 290 291 290 291 291 291 291 291 292 292 293 294 295 295 296 297 297 297 297 297 297 297 296 297 297 297 297 298 297 296 297 297 296 292 291 293 294 293 289 285 286 286 282 279 272 265 262 262 260 257 256 256 258 264 265 263 260
290 291 289 288 288 287 286 286 287 286 286 288 290 291 290 288 289 289 288 286 287 288 287 287 287 287 287 289 290 290 289 290 290 290 291 291 291 292 293 294 295 295 296 296 297 297 297 297 296 295 295 295 295 296 296 296 295 295 295 295 293 289 290 293 293 292 287 285 288 283 278 274 266 258 256 256 256 254 255 256 257 262 267 266 262
291 290 290 291 291 290 287 285 286 285 286 289 290 290 288 287 288 288 286 286 287 286 285 285 286 286 286 288 290 288 288 290 290 290 291 291 291 292 293 294 294 295 295 295 295 295 295 295 294 294 294 294 294 295 295 294 294 294 292 292 291 289 291 293 292 290 284 284 286 278 275 271 263 257 254 252 252 253 254 257 260 264 268 269 264
289 288 290 291 289 289 287 286 286 285 286 288 290 289 287 286 287 286 286 287 287 284 283 284 285 284 285 288 289 287 288 289 290 290 291 291 291 292 293 294 294 294 294 294 294 294 294 293 292 292 293 294 294 294 293 293 293 290 288 290 290 288 292 293 291 287 282 284 281 273 270 266 261 257 254 248 245 248 252 254 257 261 264 268 266
284 284 287 287 284 285 285 287 288 286 285 287 289 288 286 285 286 285 286 287 285 282 282 284 285 284 285 287 288 288 288 289 289 290 290 290 290 291 293 295 294 294 294 293 293 292 291 291 290 290 291 293 293 292 292 291 289 285 286 289 288 288 292 293 290 284 281 282 274 266 263 259 257 255 253 247 240 241 247 251 253 256 259 264 266
276 277 279 281 280 279 281 285 285 284 285 286 288 287 284 283 284 283 284 286 283 281 283 286 285 285 285 286 287 287 287 288 289 289 289 290 290 292 294 295 293 293 293 292 291 290 289 288 288 288 290 291 291 290 289 287 283 282 284 286 286 288 292 291 286 280 279 279 268 260 257 253 254 254 252 246 238 235 240 247 250 253 256 260 263
271 273 275 278 278 278 280 282 282 282 284 285 285 284 283 282 283 282 282 284 282 281 284 286 285 285 285 285 286 286 287 288 288 288 289 291 292 293 294 293 292 292 292 291 289 288 286 285 285 287 290 291 289 287 284 281 279 280 283 284 285 287 290 288 282 278 279 276 263 255 251 249 251 252 249 242 237 233 233 239 246 250 253 256 259
270 272 274 275 276 278 280 281 281 282 282 283 282 282 281 281 282 281 282 283 282 282 284 285 285 285 284 284 285 286 287 288 288 289 290 291 291 292 292 291 290 291 291 289 287 286 283 283 285 289 292 291 287 283 279 275 276 281 283 284 286 288 287 284 279 277 276 271 258 250 246 245 248 249 245 236 233 232 231 232 237 243 247 250 254
271 272 274 274 275 277 278 280 280 280 280 280 280 280 280 280 281 281 283 283 282 283 284 284 284 283 282 283 284 286 287 287 288 289 289 289 289 289 288 288 289 289 288 287 286 283 279 281 289 292 293 289 281 277 274 273 277 282 284 287 289 287 284 280 277 275 272 267 256 246 242 241 245 245 241 233 227 229 231 231 233 237 241 247 253
274 274 275 275 275 276 277 278 278 278 278 278 278 278 279 279 280 281 282 283 284 284 283 282 281 282 283 284 284 285 286 286 288 288 287 287 287 286 287 287 287 286 287 287 283 277 273 280 292 294 291 285 277 272 271 272 279 284 285 288 289 285 281 278 275 272 268 265 253 242 240 238 240 240 237 231 224 222 226 231 233 237 242 247 255
275 275 275 275 275 276 276 277 277 277 277 277 277 277 278 279 279 280 282 283 284 283 280 278 279 282 282 283 284 285 286 286 286 286 285 284 284 284 286 285 282 284 287 283 275 270 272 282 293 295 289 281 274 271 270 274 281 284 285 286 286 283 280 277 273 269 265 261 249 238 238 236 234 233 232 230 225 222 221 222 225 234 243 246 253
276 276 276 276 276 275 275 276 276 276 275 275 276 277 278 278 279 280 281 282 281 278 276 277 280 281 279 280 282 282 283 285 284 285 284 283 283 284 284 280 279 282 283 276 268 269 276 285 294 293 286 278 272 271 272 276 282 284 285 284 283 280 279 276 271 267 262 256 248 238 236 235 231 229 227 227 227 226 222 217 217 230 240 241 248
278 277 277 277 276 275 275 276 276 275 275 274 276 278 277 277 279 280 280 279 276 274 275 278 280 280 279 279 280 280 280 281 281 281 281 281 282 281 279 278 278 279 277 271 269 273 279 286 292 291 284 276 272 273 275 278 282 285 285 282 280 278 277 276 270 264 260 254 249 240 235 232 228 225 223 224 226 228 226 221 221 230 232 233 246
280 279 278 277 276 275 275 275 276 276 275 275 276 277 277 278 279 279 278 277 274 274 276 278 279 280 279 278 279 281 279 278 277 276 277 279 280 277 276 277 278 277 274 270 273 280 282 286 290 289 280 274 274 277 278 279 282 284 282 279 277 276 278 276 268 264 260 253 250 241 235 229 223 219 218 221 225 227 227 225 227 230 227 229 243
281 279 277 275 275 274 274 275 275 275 275 276 277 278 278 279 278 277 276 275 274 276 277 278 279 280 278 277 279 280 278 277 276 275 276 277 278 276 275 277 277 276 273 273 280 284 284 286 288 285 277 274 276 279 279 281 284 282 276 275 275 275 278 276 268 265 260 252 246 239 234 229 221 215 214 219 224 225 226 227 229 230 228 231 243
280 278 276 273 272 273 273 273 273 273 275 276 277 277 277 277 277 276 275 275 276 277 277 278 278 277 277 278 278 277 277 277 276 276 276 276 276 276 276 276 276 276 274 277 282 283 282 285 284 279 277 276 277 278 279 280 281 277 271 272 274 273 277 279 271 267 262 252 243 233 228 225 221 216 213 218 223 223 224 226 227 227 229 236 245
276 275 275 273 272 273 274 272 272 274 275 276 276 276 275 275 275 275 275 276 277 278 278 278 277 276 278 279 277 277 279 278 276 276 275 274 273 273 274 274 275 276 276 279 281 278 280 282 278 274 273 272 274 276 278 278 278 274 269 271 274 273 278 280 273 267 264 254 243 232 222 217 216 217 216 218 222 223 223 223 224 225 229 233 240
270 271 273 275 276 275 275 274 273 274 273 273 273 273 273 274 276 277 277 278 278 278 279 279 279 279 279 279 278 278 279 278 276 275 274 274 273 272 272 272 274 276 278 278 274 272 274 272 270 269 268 268 272 274 275 276 276 273 271 275 275 274 280 281 272 265 263 254 243 236 226 216 212 214 216 219 224 225 225 224 222 224 227 225 229
262 267 273 275 274 274 275 274 273 272 271 272 272 273 275 278 279 280 279 280 280 279 279 280 280 279 278 278 279 278 277 277 276 275 274 274 274 274 273 273 274 275 275 271 267 268 271 269 268 269 269 269 271 271 272 274 274 273 275 277 274 276 284 282 272 264 260 253 243 238 233 222 212 209 211 218 224 227 229 227 224 223 222 221 225
260 266 272 274 273 274 274 272 272 272 272 273 274 275 278 280 280 281 281 280 280 280 280 279 278 278 277 278 277 276 276 277 275 274 274 275 275 275 274 274 273 272 270 267 266 269 271 271 269 268 271 272 271 271 271 272 271 274 277 274 271 278 284 280 271 262 256 251 241 235 234 227 212 204 208 218 226 230 232 230 226 222 221 223 226
261 265 267 270 272 273 273 272 272 273 275 276 277 278 280 280 281 281 282 281 281 281 280 278 276 276 276 276 275 274 275 276 275 274 276 276 274 273 272 271 269 268 265 264 266 269 271 268 263 264 270 272 272 273 273 273 274 276 274 270 272 277 280 274 265 258 253 248 240 231 228 226 213 204 209 218 229 236 238 232 224 221 223 226 227
261 264 265 266 267 269 272 273 274 275 276 277 278 280 281 281 281 282 282 282 281 281 280 279 277 275 274 273 273 272 273 273 272 274 276 275 270 268 268 266 265 263 261 262 265 268 266 261 259 262 267 270 271 271 274 277 278 275 269 270 275 276 275 268 258 254 252 247 240 231 225 223 216 209 208 213 225 235 243 240 227 222 224 225 225
260 262 262 263 264 267 271 273 275 277 277 278 279 280 281 281 281 281 282 282 282 282 281 280 278 275 274 272 271 271 271 270 269 268 267 266 264 263 262 262 262 260 259 261 265 266 260 258 261 261 263 264 265 267 271 274 273 270 270 274 277 274 269 261 252 249 250 246 239 233 226 221 218 215 210 208 217 229 239 247 238 228 226 225 226
258 261 262 264 266 268 271 273 275 276 277 278 279 280 280 280 281 282 283 283 283 282 281 279 277 274 273 271 270 269 269 268 267 263 258 258 261 262 260 259 260 259 260 261 262 262 258 259 260 260 260 257 258 263 264 266 267 269 271 276 276 269 259 252 247 244 245 244 238 233 226 217 217 218 213 207 211 224 233 247 250 239 231 228 229
258 263 265 267 268 269 269 271 273 274 276 277 277 278 278 280 282 284 284 283 282 281 280 278 275 273 272 271 270 268 267 264 262 261 257 258 262 264 260 260 261 261 262 261 260 260 258 258 257 258 259 254 252 257 259 261 264 268 271 275 273 258 247 244 242 240 240 241 237 232 223 215 215 217 215 208 208 220 231 248 256 250 238 231 229
260 264 265 267 268 268 269 269 270 271 272 273 273 274 276 280 283 284 283 282 281 279 279 277 275 273 272 270 269 267 264 260 258 256 255 256 259 260 259 261 263 261 261 260 259 260 258 258 256 254 255 252 247 250 256 260 262 267 272 275 268 246 237 239 237 236 236 237 236 230 219 213 214 217 216 209 206 217 231 246 254 255 247 234 228
260 260 262 265 266 266 267 267 267 268 269 270 271 272 276 280 282 282 282 282 281 279 276 275 274 273 272 270 267 264 261 257 255 253 251 251 254 256 256 259 259 258 260 260 257 256 254 255 253 251 253 251 247 248 253 258 261 266 270 271 259 240 234 237 236 234 233 232 233 227 217 213 215 217 216 209 209 220 232 243 249 253 252 238 228
255 255 257 260 262 263 265 266 267 268 270 272 274 276 279 281 281 280 281 282 281 278 276 275 274 272 270 268 265 262 258 254 252 252 249 248 250 252 253 253 253 255 255 257 258 254 250 249 249 251 254 252 249 249 250 253 259 263 265 260 246 236 234 236 236 235 233 231 229 225 218 216 216 217 215 211 214 222 232 241 247 250 249 239 231
250 252 256 261 262 265 267 268 270 272 274 277 279 281 281 280 280 280 280 280 278 277 276 275 274 272 270 268 265 262 258 253 250 251 250 249 250 251 252 250 251 252 249 253 259 256 250 247 246 250 253 253 251 248 246 249 254 257 259 249 236 231 231 234 236 234 234 232 227 224 221 219 220 221 219 217 216 219 229 238 243 246 243 239 238
251 256 262 268 270 272 273 274 275 277 279 281 282 283 282 281 281 282 281 278 276 275 275 275 274 271 269 267 266 263 260 256 252 251 250 251 251 251 251 251 253 253 251 253 256 251 246 244 245 247 246 248 247 242 243 248 251 253 252 243 235 231 230 232 233 233 234 232 227 224 223 222 224 225 227 228 220 215 223 234 241 244 242 241 244
253 261 267 272 275 276 279 280 280 281 281 282 283 283 284 284 284 283 282 280 277 275 274 273 273 271 268 265 264 262 260 257 254 252 251 251 252 251 251 252 253 254 253 254 251 243 242 242 243 243 239 241 242 237 240 247 249 250 246 240 237 234 233 234 234 234 234 233 229 225 225 226 228 229 232 235 226 216 218 229 238 240 239 240 243
252 260 267 272 275 279 282 283 282 282 281 281 281 283 286 286 285 285 284 283 280 278 276 274 272 271 268 265 262 261 259 256 254 253 252 251 251 250 250 250 251 252 251 251 248 244 246 245 240 236 232 233 237 235 239 244 247 248 242 238 238 235 234 236 237 236 235 235 234 229 227 228 231 232 232 234 228 220 220 224 228 232 233 237 242
252 259 265 270 274 278 281 281 281 280 279 280 282 285 287 287 287 287 287 286 284 281 279 277 275 273 270 267 264 262 260 258 255 253 252 250 250 250 250 249 248 249 249 249 248 247 248 246 239 234 231 232 234 234 236 242 246 245 239 236 238 236 235 236 237 237 237 236 238 237 232 228 228 231 232 231 228 224 224 225 226 225 227 232 239
252 257 262 267 271 273 276 278 279 278 279 282 284 287 288 287 287 288 288 289 288 285 283 281 279 277 275 272 269 266 263 261 259 257 254 253 251 250 250 250 249 248 248 248 248 248 248 246 241 238 238 239 240 238 237 241 243 241 237 235 237 237 236 236 236 238 239 237 237 239 239 234 229 228 231 231 228 226 227 229 230 227 225 228 233
250 254 258 261 262 263 269 275 278 280 282 283 285 286 286 286 287 288 288 288 289 289 287 286 283 281 279 276 274 271 267 265 262 260 258 256 254 252 251 251 250 249 249 248 248 248 247 246 244 242 241 242 242 238 236 237 237 235 234 233 235 237 236 235 237 239 242 241 237 236 238 238 234 231 232 234 233 231 231 233 235 233 230 228 229
249 252 254 255 253 254 263 272 276 279 282 284 286 285 283 285 286 286 286 286 287 288 288 287 286 284 282 279 277 273 270 267 264 262 260 258 257 254 252 251 251 251 250 249 249 248 247 246 246 244 242 240 238 235 232 232 234 235 233 230 231 234 235 236 238 239 241 242 241 237 235 236 236 234 234 236 236 236 236 236 238 238 236 234 233
248 250 251 251 249 251 259 268 274 276 279 284 286 283 281 286 287 285 284 283 283 284 285 286 285 284 283 281 279 276 272 269 266 263 261 259 258 256 254 252 251 251 251 250 249 248 247 246 245 244 243 239 236 234 232 231 235 236 233 229 228 229 232 235 238 239 239 240 242 242 239 236 236 236 235 235 236 237 238 238 239 239 239 240 239
250 251 252 253 252 252 256 263 269 272 277 282 283 281 280 284 287 285 284 282 280 281 281 282 283 282 282 282 281 279 276 272 268 265 263 261 259 257 256 253 251 251 251 251 250 249 248 247 246 244 243 240 238 236 234 232 234 234 231 229 226 226 230 234 238 241 241 240 242 244 243 240 238 237 236 236 235 236 237 238 239 239 239 241 243
253 253 253 254 255 255 257 260 263 268 276 280 280 280 279 282 287 285 283 282 279 278 278 278 279 280 280 280 281 280 278 275 272 268 264 261 259 257 255 254 252 251 250 251 251 251 250 249 248 246 244 242 240 239 236 233 233 231 230 228 227 226 229 232 237 242 244 243 243 244 246 244 241 240 239 237 237 237 237 237 238 238 238 239 240
255 255 255 255 257 259 260 261 263 268 275 277 279 281 281 282 286 284 283 281 279 277 276 276 276 276 277 278 278 279 278 277 274 271 266 262 258 256 254 253 252 251 251 251 251 252 252 251 250 249 247 245 243 241 238 235 233 232 230 228 227 227 228 229 232 237 243 244 244 243 245 245 244 242 241 240 239 239 239 239 238 239 238 238 237
259 259 259 258 260 263 263 264 266 270 274 277 279 282 283 284 285 283 283 281 278 276 275 273 273 273 273 273 274 275 275 275 273 271 267 263 259 256 254 253 252 251 251 251 252 252 252 251 250 250 249 248 246 243 241 239 236 235 235 232 229 228 229 228 228 231 238 242 243 242 242 244 244 243 243 241 240 239 239 239 238 238 238 237 237
Height
10893 10894 10894 10895 10896 10896 10895 10894 10893 10891 10889 10887 10886 10886 10885 10884 10884 10883 10882 10881 10881 10881 10880 10879 10877 10876 10876 10875 10875 10874 10873 10873 10871 10871 10870 10868 10867 10865 10864 10863 10862 10860 10859 10858 10857 10856 10855 10854 10853 10852 10851 10849 10848 10846 10845 10844 10843 10842 10841 10839 10836 10833 10831 10829 10828 10827 10826 10825 10824 10822 10821 10820 10820 10820 10820 10819 10818 10818 10818 10818 10817 10817 10818 10818 10819
10889 10889 10889 10891 10890 10891 10889 10889 10888 10886 10884 10882 10882 10881 10881 10880 10879 10878 10877 10877 10876 10876 10875 10874 10872 10872 10871 10870 10869 10868 10868 10867 10866 10866 10865 10864 10862 10861 10860 10859 10857 10856 10855 10854 10852 10851 10850 10849 10849 10848 10846 10845 10843 10841 10840 10840 10839 10838 10837 10834 10831 10829 10827 10825 10824 10823 10822 10822 10820 10819 10818 10817 10818 10818 10817 10817 10816 10816 10816 10815 10815 10815 10816 10816 10817
10885 10884 10885 10886 10885 10885 10884 10884 10882 10881 10879 10878 10877 10876 10876 10875 10875 10874 10873 10872 10872 10871 10870 10869 10867 10867 10866 10864 10863 10862 10862 10861 10861 10860 10860 10859 10857 10856 10855 10854 10853 10851 10850 10850 10848 10847 10845 10844 10844 10843 10842 10840 10838 10837 10836 10835 10834 10833 10832 10829 10827 10825 10823 10821 10820 10819 10819 10818 10817 10816 10815 10815 10815 10815 10815 10815 10814 10813 10813 10813 10813 10813 10814 10814 10815
10880 10880 10880 10881 10880 10880 10879 10879 10877 10875 10874 10873 10873 10872 10872 10871 10870 10870 10869 10868 10867 10867 10865 10863 10862 10862 10861 10859 10858 10857 10856 10855 10855 10855 10854 10853 10852 10850 10849 10849 10848 10846 10845 10845 10844 10842 10841 10840 10839 10838 10837 10835 10833 10832 10831 10830 10829 10829 10827 10824 10822 10821 10819 10818 10816 10816 10815 10814 10814 10813 10813 10812 10812 10812 10813 10812 10812 10811 10811 10811 10811 10811 10812 10813 10813
10877 10876 10876 10875 10875 10874 10873 10873 10871 10869 10869 10868 10868 10867 10867 10866 10866 10865 10864 10863 10862 10861 10860 10858 10857 10856 10855 10854 10852 10851 10850 10849 10849 10849 10849 10848 10847 10845 10844 10843 10843 10842 10840 10840 10839 10837 10836 10835 10834 10833 10832 10830 10828 10827 10826 10825 10825 10823 10821 10820 10818 10817 10815 10814 10813 10812 10812 10811 10810 10810 10810 10809 10810 10810 10810 10810 10809 10809 10809 10809 10809 10809 10810 10811 10811
10872 10873 10871 10870 10869 10868 10867 10866 10865 10864 10863 10863 10863 10863 10863 10862 10861 10861 10860 10859 10857 10856 10854 10853 10852 10851 10850 10848 10847 10845 10844 10843 10843 10843 10843 10843 10842 10841 10839 10838 10837 10837 10835 10834 10834 10832 10831 10830 10829 10828 10827 10825 10823 10822 10821 10820 10820 10818 10816 10815 10814 10813 10811 10810 10809 10808 10808 10808 10807 10807 10807 10807 10807 10807 10808 10807 10807 10807 10807 10807 10807 10807 10808 10809 10809
10866 10866 10865 10864 10863 10862 10861 10860 10859 10858 10858 10858 10858 10858 10858 10857 10857 10856 10855 10853 10851 10850 10849 10848 10847 10845 10844 10842 10841 10840 10838 10837 10836 10837 10837 10837 10837 10836 10835 10833 10832 10831 10830 10829 10828 10827 10826 10825 10824 10822 10821 10819 10818 10816 10816 10816 10815 10813 10812 10811 10810 10809 10808 10807 10806 10805 10805 10804 10804 10804 10804 10805 10805 10805 10805 10805 10804 10804 10805 10805 10805 10805 10806 10807 10808
10860 10859 10858 10857 10856 10855 10854 10853 10853 10852 10852 10852 10852 10852 10852 10852 10852 10851 10850 10847 10845 10844 10843 10842 10841 10840 10838 10836 10835 10834 10832 10830 10830 10830 10831 10831 10831 10831 10830 10828 10827 10826 10825 10824 10823 10822 10821 10820 10818 10817 10815 10814 10813 10812 10811 10811 10810 10808 10807 10807 10806 10805 10805 10804 10802 10801 10802 10802 10801 10801 10801 10802 10802 10802 10801 10802 10802 10802 10803 10803 10803 10804 10804 10805 10806
10855 10853 10851 10850 10849 10848 10847 10847 10847 10846 10846 10846 10847 10847 10847 10847 10846 10845 10844 10841 10840 10838 10837 10836 10835 10834 10832 10831 10829 10828 10826 10824 10824 10824 10824 10825 10825 10825 10825 10823 10821 10820 10819 10819 10817 10817 10816 10815 10813 10811 10810 10809 10808 10807 10806 10806 10805 10804 10803 10802 10802 10802 10802 10800 10799 10798 10799 10798 10798 10798 10798 10799 10800 10799 10798 10799 10799 10800 10800 10801 10802 10802 10803 10803 10804
10847 10845 10843 10842 10841 10840 10840 10840 10840 10840 10840 10840 10841 10841 10841 10841 10840 10838 10836 10835 10834 10833 10831 10830 10829 10828 10827 10825 10824 10822 10820 10819 10818 10818 10818 10819 10820 10820 10819 10818 10816 10815 10813 10812 10812 10811 10811 10810 10808 10806 10805 10804 10803 10802 10802 10801 10800 10799 10799 10798 10799 10799 10798 10797 10795 10795 10795 10794 10794 10795 10796 10796 10796 10796 10795 10795 10796 10797 10798 10799 10800 10801 10801 10802 10803
10837 10836 10835 10833 10832 10832 10833 10833 10833 10834 10834 10835 10835 10835 10834 10833 10832 10830 10829 10828 10828 10827 10825 10824 10824 10823 10822 10820 10818 10816 10814 10813 10812 10812 10813 10813 10814 10814 10814 10813 10811 10809 10808 10806 10806 10806 10805 10805 10803 10801 10800 10799 10797 10797 10797 10797 10796 10795 10795 10795 10795 10795 10795 10793 10792 10792 10791 10790 10792 10792 10793 10793 10793 10792 10792 10793 10794 10795 10796 10797 10798 10799 10800 10800 10801
10827 10826 10826 10824 10824 10825 10826 10826 10827 10828 10828 10829 10829 10829 10828 10826 10825 10823 10822 10822 10822 10821 10820 10819 10818 10817 10816 10814 10812 10810 10809 10808 10807 10807 10807 10808 10808 10808 10808 10807 10806 10804 10802 10800 10800 10800 10800 10800 10798 10796 10794 10794 10793 10792 10792 10792 10792 10791 10791 10791 10791 10792 10791 10790 10788 10788 10787 10787 10789 10789 10789 10789 10789 10789 10789 10790 10791 10792 10794 10795 10796 10798 10799 10799 10799
10818 10818 10817 10817 10817 10819 10819 10820 10821 10821 10822 10823 10823 10823 10822 10820 10818 10816 10816 10816 10816 10816 10815 10814 10813 10812 10810 10808 10806 10804 10803 10803 10803 10802 10802 10802 10802 10803 10802 10801 10800 10798 10797 10795 10794 10793 10794 10794 10793 10791 10789 10789 10788 10788 10788 10788 10788 10787 10787 10787 10788 10788 10788 10786 10785 10785 10784 10784 10786 10785 10785 10786 10785 10786 10787 10787 10788 10789 10791 10793 10794 10796 10797 10797 10798
10815 10813 10810 10810 10811 10814 10814 10815 10815 10816 10816 10816 10817 10817 10816 10814 10812 10810 10810 10810 10810 10810 10810 10810 10809 10806 10804 10801 10799 10799 10798 10798 10798 10797 10796 10796 10796 10796 10797 10796 10795 10793 10792 10790 10789 10787 10787 10788 10788 10786 10785 10784 10784 10783 10784 10784 10784 10783 10783 10784 10784 10785 10784 10782 10781 10781 10780 10782 10782 10781 10782 10782 10781 10782 10784 10784 10785 10787 10788 10790 10792 10793 10795 10795 10796
10813 10809 10804 10805 10806 10809 10809 10809 10810 10810 10810 10809 10810 10810 10809 10808 10806 10805 10804 10804 10804 10805 10805 10805 10803 10800 10797 10794 10793 10793 10793 10793 10792 10792 10791 10790 10790 10790 10791 10791 10789 10788 10787 10785 10784 10782 10781 10782 10783 10782 10781 10780 10779 10779 10779 10780 10779 10779 10780 10780 10781 10781 10780 10779 10778 10777 10777 10779 10779 10778 10778 10778 10778 10779 10780 10781 10782 10783 10785 10788 10789 10791 10792 10793 10794
10806 10804 10800 10800 10801 10803 10803 10803 10803 10804 10804 10802 10802 10802 10802 10801 10800 10799 10798 10798 10799 10800 10801 10800 10797 10793 10789 10788 10788 10788 10788 10788 10787 10786 10785 10784 10784 10784 10786 10785 10784 10783 10782 10781 10779 10777 10776 10777 10778 10778 10777 10776 10775 10775 10775 10775 10775 10775 10776 10776 10777 10777 10776 10775 10774 10773 10773 10775 10775 10774 10774 10774 10775 10776 10777 10778 10779 10780 10782 10785 10787 10788 10790 10791 10791
10800 10800 10798 10797 10796 10797 10797 10797 10797 10797 10797 10795 10795 10794 10794 10793 10793 10792 10791 10792 10793 10795 10796 10794 10789 10784 10782 10782 10783 10783 10782 10782 10781 10780 10779 10778 10778 10778 10780 10780 10779 10778 10777 10776 10775 10773 10771 10771 10773 10773 10773 10772 10771 10770 10770 10770 10771 10771 10772 10772 10773 10772 10772 10771 10770 10768 10767 10771 10772 10770 10771 10771 10772 10773 10774 10775 10776 10777 10779 10781 10784 10785 10787 10788 10789
10801 10797 10796 10794 10791 10791 10790 10790 10790 10790 10789 10788 10786 10786 10786 10785 10785 10784 10784 10785 10788 10790 10790 10785 10781 10776 10775 10777 10778 10777 10777 10777 10776 10775 10774 10773 10773 10773 10774 10774 10773 10773 10771 10770 10770 10768 10767 10767 10768 10768 10769 10768 10767 10766 10766 10766 10767 10767 10768 10769 10769 10768 10767 10766 10766 10763 10762 10766 10769 10767 10767 10768 10769 10770 10771 10772 10773 10774 10776 10778 10781 10782 10784 10785 10786
10798 10793 10792 10790 10787 10785 10784 10782 10782 10781 10780 10779 10779 10779 10778 10777 10777 10776 10777 10780 10784 10785 10781 10776 10772 10770 10771 10773 10773 10772 10772 10771 10771 10770 10769 10768 10767 10768 10768 10769 10768 10768 10767 10766 10765 10764 10763 10763 10763 10763 10764 10764 10763 10762 10762 10762 10763 10764 10764 10764 10764 10764 10763 10762 10761 10758 10757 10761 10765 10764 10763 10765 10765 10767 10768 10769 10771 10772 10773 10775 10777 10779 10781 10782 10783
10790 10786 10785 10782 10780 10778 10776 10775 10773 10773 10772 10772 10771 10771 10770 10769 10769 10769 10772 10775 10778 10777 10772 10768 10766 10766 10767 10769 10767 10767 10767 10766 10765 10764 10764 10763 10762 10763 10763 10763 10763 10763 10763 10762 10760 10760 10759 10759 10759 10758 10759 10759 10759 10758 10758 10758 10759 10760 10760 10760 10760 10759 10758 10758 10756 10753 10753 10757 10761 10760 10760 10761 10762 10763 10764 10766 10767 10769 10770 10772 10775 10776 10778 10779 10780
10781 10778 10776 10773 10772 10770 10768 10767 10765 10765 10764 10765 10763 10763 10763 10763 10763 10764 10767 10769 10770 10768 10764 10760 10760 10762 10763 10763 10762 10762 10762 10760 10759 10759 10759 10758 10757 10757 10758 10759 10759 10759 10759 10758 10756 10755 10755 10755 10756 10755 10754 10754 10754 10754 10754 10754 10755 10756 10756 10755 10755 10755 10754 10754 10752 10749 10750 10753 10756 10756 10756 10757 10758 10759 10761 10762 10764 10765 10767 10768 10770 10773 10774 10776 10777
10771 10769 10766 10764 10764 10762 10760 10758 10757 10757 10757 10757 10756 10756 10758 10757 10757 10758 10760 10761 10761 10760 10757 10753 10754 10757 10758 10758 10758 10758 10757 10755 10754 10753 10752 10752 10752 10753 10753 10754 10754 10755 10754 10753 10753 10752 10752 10751 10752 10751 10750 10750 10750 10750 10750 10750 10751 10751 10752 10751 10751 10751 10750 10750 10748 10746 10747 10749 10751 10752 10752 10753 10755 10756 10758 10759 10761 10763 10764 10765 10766 10768 10770 10772 10774
10760 10758 10756 10755 10754 10753 10751 10751 10750 10750 10749 10750 10750 10751 10752 10751 10751 10752 10753 10752 10753 10752 10750 10747 10747 10751 10752 10753 10753 10754 10752 10751 10750 10748 10746 10746 10746 10748 10748 10748 10749 10750 10750 10750 10750 10749 10749 10748 10747 10747 10746 10745 10745 10746 10746 10746 10747 10747 10747 10747 10747 10747 10747 10746 10743 10742 10744 10745 10746 10748 10748 10750 10751 10753 10754 10756 10758 10759 10761 10762 10763 10765 10766 10769 10771
10750 10748 10747 10745 10744 10743 10743 10744 10743 10742 10742 10743 10744 10744 10744 10744 10745 10746 10746 10744 10744 10745 10743 10741 10741 10745 10747 10748 10748 10748 10747 10746 10745 10742 10741 10741 10741 10743 10743 10743 10744 10745 10746 10746 10747 10746 10745 10744 10743 10742 10742 10741 10740 10741 10741 10742 10742 10743 10743 10743 10744 10744 10744 10743 10739 10738 10740 10741 10742 10744 10745 10745 10747 10749 10751 10752 10754 10756 10758 10759 10760 10762 10763 10766 10768
10740 10739 10738 10736 10735 10735 10735 10737 10737 10736 10735 10736 10737 10736 10736 10737 10738 10739 10739 10737 10736 10737 10737 10736 10736 10738 10742 10743 10742 10741 10740 10739 10738 10736 10736 10736 10737 10738 10739 10739 10740 10741 10742 10742 10743 10742 10741 10739 10737 10736 10736 10736 10735 10735 10736 10738 10738 10739 10739 10739 10740 10741 10741 10739 10735 10734 10736 10738 10739 10740 10741 10742 10743 10745 10747 10749 10750 10752 10754 10756 10757 10759 10761 10763 10765
10731 10730 10729 10728 10728 10727 10729 10730 10731 10731 10730 10730 10729 10729 10729 10730 10731 10732 10732 10730 10729 10730 10731 10731 10731 10732 10735 10736 10736 10735 10734 10733 10731 10730 10730 10731 10732 10733 10734 10734 10735 10736 10738 10739 10739 10738 10737 10734 10732 10730 10730 10731 10730 10730 10731 10733 10734 10735 10735 10735 10736 10738 10738 10736 10732 10730 10732 10735 10735 10735 10737 10738 10739 10741 10743 10745 10746 10748 10749 10751 10753 10755 10757 10759 10761
10723 10722 10723 10722 10722 10722 10724 10725 10725 10726 10724 10723 10722 10721 10722 10723 10725 10726 10726 10724 10723 10723 10724 10725 10726 10726 10728 10729 10730 10729 10728 10727 10724 10723 10724 10726 10728 10729 10729 10729 10730 10731 10733 10734 10734 10734 10732 10728 10725 10724 10724 10725 10725 10725 10725 10727 10729 10731 10731 10731 10732 10734 10734 10733 10730 10726 10727 10731 10731 10731 10732 10733 10735 10737 10740 10741 10743 10744 10746 10747 10749 10751 10753 10755 10757
10716 10714 10716 10715 10717 10718 10719 10719 10719 10719 10717 10716 10715 10715 10715 10717 10719 10720 10720 10718 10717 10718 10717 10717 10719 10720 10721 10721 10722 10721 10721 10719 10717 10717 10718 10720 10723 10724 10724 10725 10725 10726 10728 10728 10728 10729 10726 10722 10719 10718 10718 10719 10720 10720 10721 10722 10724 10727 10728 10727 10728 10730 10730 10729 10727 10723 10723 10726 10728 10727 10727 10728 10731 10733 10736 10738 10739 10741 10742 10744 10745 10747 10749 10751 10753
10709 10708 10709 10709 10711 10713 10713 10713 10712 10711 10710 10709 10709 10709 10710 10712 10714 10715 10714 10713 10711 10711 10711 10711 10711 10713 10713 10713 10714 10714 10714 10713 10711 10711 10712 10714 10716 10717 10718 10720 10720 10721 10722 10722 10722 10722 10720 10718 10717 10714 10713 10714 10715 10715 10716 10718 10720 10722 10723 10723 10724 10725 10725 10725 10723 10720 10719 10722 10724 10724 10724 10725 10727 10729 10732 10735 10736 10738 10739 10740 10742 10744 10746 10748 10750
10703 10705 10706 10705 10704 10705 10706 10707 10705 10703 10703 10704 10704 10705 10706 10707 10709 10709 10709 10707 10705 10704 10704 10704 10704 10705 10706 10706 10707 10707 10708 10707 10706 10707 10707 10709 10710 10710 10712 10713 10714 10714 10714 10715 10716 10717 10716 10716 10715 10712 10709 10709 10710 10710 10711 10714 10716 10717 10718 10719 10720 10720 10721 10721 10720 10717 10716 10718 10721 10721 10721 10722 10723 10725 10728 10731 10733 10735 10736 10737 10739 10741 10743 10745 10747
10700 10701 10703 10701 10698 10698 10699 10700 10698 10696 10696 10697 10698 10699 10700 10701 10701 10702 10702 10700 10698 10697 10697 10697 10697 10698 10698 10699 10699 10700 10701 10701 10702 10702 10702 10702 10703 10704 10704 10706 10707 10707 10707 10709 10711 10713 10713 10712 10711 10709 10706 10706 10706 10706 10706 10708 10711 10714 10714 10714 10715 10716 10716 10717 10717 10714 10713 10715 10717 10718 10718 10719 10720 10722 10724 10727 10730 10732 10733 10734 10736 10738 10740 10742 10744
10695 10695 10697 10695 10693 10692 10691 10691 10691 10691 10690 10691 10692 10692 10692 10693 10694 10694 10694 10692 10690 10690 10689 10689 10688 10689 10690 10692 10692 10693 10695 10697 10698 10698 10696 10695 10696 10696 10697 10698 10699 10700 10701 10703 10705 10707 10708 10706 10705 10705 10703 10703 10704 10704 10703 10704 10707 10709 10710 10710 10710 10711 10711 10712 10713 10711 10710 10711 10713 10714 10715 10716 10717 10718 10720 10722 10726 10728 10730 10731 10733 10734 10736 10739 10741
10688 10687 10688 10688 10687 10687 10685 10685 10684 10684 10684 10684 10685 10685 10686 10686 10687 10688 10687 10685 10683 10682 10681 10681 10680 10679 10680 10683 10685 10687 10689 10691 10692 10693 10690 10686 10686 10686 10688 10690 10690 10693 10695 10696 10698 10700 10701 10701 10702 10701 10699 10700 10701 10701 10700 10701 10702 10703 10705 10706 10706 10706 10706 10707 10709 10708 10706 10707 10709 10711 10712 10714 10715 10716 10717 10718 10720 10724 10727 10729 10730 10732 10733 10735 10737
10681 10680 10680 10681 10681 10681 10680 10679 10678 10678 10677 10678 10678 10678 10679 10680 10680 10680 10679 10679 10677 10675 10674 10675 10674 10672 10671 10674 10677 10680 10683 10684 10683 10684 10681 10676 10676 10679 10681 10682 10683 10685 10687 10688 10690 10693 10695 10696 10697 10697 10696 10697 10698 10697 10697 10697 10697 10698 10699 10701 10702 10701 10702 10703 10704 10704 10702 10703 10705 10707 10708 10710 10712 10714 10714 10714 10716 10720 10723 10726 10727 10729 10730 10732 10734
10674 10672 10672 10672 10673 10674 10674 10674 10674 10674 10674 10674 10674 10674 10673 10674 10674 10672 10671 10672 10670 10668 10667 10667 10668 10667 10665 10666 10669 10673 10676 10677 10675 10675 10673 10669 10670 10674 10677 10677 10677 10679 10679 10681 10683 10686 10689 10689 10690 10691 10692 10693 10693 10693 10692 10693 10693 10693 10694 10696 10698 10697 10698 10698 10699 10699 10698 10698 10701 10703 10705 10707 10709 10711 10712 10712 10713 10716 10720 10722 10724 10725 10726 10728 10730
10667 10664 10664 10664 10664 10666 10667 10668 10669 10670 10670 10671 10672 10672 10671 10670 10668 10666 10665 10665 10665 10663 10660 10659 10659 10660 10660 10660 10662 10665 10667 10668 10669 10669 10667 10665 10666 10669 10672 10671 10671 10672 10673 10674 10677 10679 10681 10682 10683 10685 10687 10688 10688 10688 10688 10689 10689 10689 10689 10692 10694 10694 10694 10694 10695 10695 10695 10695 10697 10699 10701 10703 10706 10707 10709 10709 10710 10713 10716 10719 10720 10721 10723 10724 10726
10659 10658 10657 10658 10658 10660 10660 10661 10662 10663 10664 10666 10667 10668 10668 10666 10665 10663 10661 10659 10657 10656 10654 10652 10652 10654 10654 10653 10655 10658 10658 10659 10661 10663 10662 10661 10662 10664 10666 10667 10665 10665 10667 10669 10671 10673 10674 10675 10677 10679 10682 10683 10683 10684 10685 10685 10685 10685 10686 10688 10690 10691 10691 10690 10691 10692 10692 10692 10694 10696 10698 10700 10703 10704 10706 10706 10707 10710 10713 10715 10716 10717 10719 10721 10723
10650 10651 10652 10653 10653 10653 10653 10654 10654 10656 10657 10659 10660 10661 10662 10661 10661 10660 10659 10655 10652 10649 10647 10646 10647 10648 10647 10647 10649 10651 10652 10652 10654 10657 10658 10658 10658 10658 10660 10662 10662 10662 10663 10664 10666 10667 10668 10670 10672 10674 10677 10677 10677 10679 10680 10680 10680 10681 10683 10684 10686 10686 10687 10687 10688 10689 10689 10690 10691 10692 10695 10697 10699 10701 10702 10703 10704 10706 10709 10711 10712 10714 10715 10718 10720
10644 10646 10648 10648 10648 10647 10647 10647 10647 10648 10650 10651 10652 10653 10654 10655 10655 10655 10655 10653 10649 10645 10642 10640 10641 10642 10641 10641 10641 10643 10646 10648 10649 10651 10653 10654 10653 10653 10654 10656 10658 10658 10659 10660 10661 10661 10662 10665 10667 10669 10670 10670 10671 10673 10675 10676 10677 10678 10680 10681 10681 10682 10683 10684 10685 10685 10686 10687 10688 10689 10691 10694 10696 10697 10698 10699 10700 10702 10705 10708 10709 10711 10712 10714 10716
10642 10643 10644 10643 10643 10642 10641 10641 10641 10642 10644 10645 10645 10646 10647 10648 10649 10648 10648 10648 10646 10643 10639 10637 10636 10637 10637 10636 10635 10636 10639 10642 10644 10645 10647 10648 10647 10647 10649 10650 10651 10652 10653 10655 10657 10657 10657 10659 10662 10664 10664 10664 10665 10668 10670 10672 10673 10675 10676 10676 10677 10678 10678 10679 10680 10681 10682 10683 10685 10686 10688 10690 10692 10694 10695 10696 10697 10698 10701 10704 10706 10707 10709 10711 10712
10640 10640 10640 10639 10638 10637 10637 10636 10635 10636 10638 10639 10639 10640 10641 10642 10642 10642 10641 10641 10641 10640 10638 10635 10633 10633 10633 10633 10631 10631 10633 10635 10636 10638 10640 10641 10641 10641 10643 10644 10645 10646 10646 10649 10652 10652 10652 10655 10657 10658 10660 10661 10661 10663 10666 10667 10669 10671 10672 10671 10672 10674 10675 10675 10676 10678 10679 10680 10681 10683 10684 10686 10688 10689 10691 10693 10694 10695 10696 10698 10701 10703 10705 10707 10708
10637 10637 10637 10635 10635 10635 10634 10632 10630 10631 10633 10634 10635 10636 10637 10636 10636 10636 10636 10635 10635 10635 10634 10633 10631 10630 10630 10629 10628 10628 10628 10629 10630 10631 10633 10635 10635 10635 10637 10638 10639 10639 10640 10641 10644 10646 10648 10651 10653 10653 10655 10657 10657 10659 10661 10663 10665 10666 10667 10667 10668 10670 10671 10671 10673 10674 10676 10677 10677 10678 10680 10681 10683 10685 10687 10689 10691 10692 10692 10693 10696 10698 10701 10702 10704
10634 10634 10633 10632 10633 10634 10632 10629 10627 10628 10629 10631 10632 10633 10633 10632 10632 10632 10631 10630 10630 10630 10630 10629 10628 10627 10626 10625 10625 10624 10623 10623 10624 10625 10627 10628 10629 10629 10630 10632 10633 10633 10633 10635 10637 10639 10642 10645 10647 10648 10650 10652 10653 10654 10657 10659 10660 10661 10662 10663 10664 10665 10666 10667 10669 10670 10672 10673 10675 10675 10676 10678 10679 10680 10682 10684 10687 10689 10689 10690 10692 10694 10696 10698 10700
10630 10630 10631 10631 10632 10632 10630 10628 10625 10625 10626 10627 10629 10629 10629 10628 10628 10628 10627 10625 10625 10625 10625 10625 10624 10623 10622 10621 10620 10620 10619 10618 10619 10620 10621 10621 10623 10623 10624 10625 10627 10627 10627 10629 10631 10633 10635 10637 10640 10643 10645 10647 10648 10650 10652 10654 10656 10657 10658 10659 10660 10661 10662 10663 10665 10666 10667 10669 10671 10672 10673 10675 10676 10677 10678 10680 10682 10685 10687 10688 10689 10691 10692 10694 10696
10626 10627 10628 10629 10629 10629 10629 10627 10624 10623 10623 10624 10626 10626 10626 10625 10624 10624 10623 10622 10621 10621 10621 10621 10620 10619 10619 10618 10617 10616 10615 10614 10614 10615 10615 10615 10617 10618 10619 10620 10620 10621 10622 10624 10625 10627 10629 10631 10633 10636 10639 10641 10643 10645 10648 10650 10651 10652 10654 10655 10656 10657 10659 10660 10661 10662 10663 10665 10667 10668 10670 10672 10674 10675 10676 10677 10679 10681 10683 10684 10685 10688 10689 10690 10692
10623 10624 10625 10626 10627 10627 10626 10625 10622 10620 10620 10621 10622 10623 10624 10623 10621 10621 10620 10619 10618 10617 10617 10617 10616 10616 10615 10615 10614 10613 10612 10611 10610 10610 10611 10611 10611 10613 10614 10615 10615 10616 10617 10619 10621 10622 10624 10625 10627 10630 10632 10635 10638 10640 10642 10644 10646 10648 10650 10651 10652 10654 10655 10656 10658 10659 10660 10661 10662 10664 10666 10668 10670 10672 10673 10675 10676 10677 10679 10680 10682 10684 10685 10686 10687
10619 10620 10622 10623 10623 10623 10623 10622 10620 10619 10618 10619 10619 10620 10621 10620 10618 10618 10617 10616 10615 10614 10614 10614 10613 10613 10612 10611 10611 10610 10609 10608 10608 10607 10607 10607 10608 10608 10610 10611 10611 10612 10613 10614 10616 10618 10619 10620 10622 10624 10627 10629 10632 10634 10636 10639 10641 10643 10645 10647 10648 10650 10651 10653 10654 10655 10656 10657 10659 10660 10662 10664 10665 10667 10669 10670 10672 10673 10675 10677 10678 10680 10681 10682 10684
10614 10615 10616 10617 10618 10619 10619 10619 10618 10617 10616 10616 10615 10617 10619 10618 10615 10614 10614 10613 10612 10611 10611 10610 10610 10610 10609 10609 10608 10607 10607 10606 10605 10605 10605 10605 10605 10605 10606 10607 10608 10608 10609 10610 10611 10613 10614 10616 10617 10619 10621 10624 10626 10628 10631 10634 10636 10638 10640 10642 10644 10646 10647 10649 10650 10650 10652 10653 10655 10656 10658 10659 10661 10662 10664 10666 10668 10670 10672 10673 10675 10676 10677 10678 10681
10608 10609 10611 10612 10612 10613 10615 10615 10615 10615 10614 10613 10613 10613 10615 10615 10613 10611 10610 10609 10608 10608 10607 10607 10607 10607 10606 10606 10605 10605 10604 10604 10603 10603 10602 10602 10602 10602 10603 10603 10604 10605 10605 10606 10607 10608 10610 10611 10613 10614 10616 10618 10620 10622 10625 10628 10631 10632 10635 10637 10639 10640 10642 10644 10646 10647 10648 10649 10650 10652 10654 10656 10657 10657 10659 10661 10664 10666 10668 10669 10670 10672 10673 10674 10676
10602 10603 10606 10608 10607 10608 10610 10611 10612 10612 10612 10611 10610 10609 10610 10610 10609 10607 10605 10604 10604 10604 10603 10603 10603 10603 10603 10603 10603 10602 10602 10601 10601 10600 10600 10600 10599 10599 10599 10600 10600 10601 10602 10603 10603 10604 10606 10607 10608 10610 10611 10613 10615 10617 10619 10622 10625 10627 10629 10632 10633 10635 10637 10639 10642 10643 10644 10645 10646 10648 10649 10651 10652 10653 10654 10657 10659 10661 10663 10665 10666 10667 10669 10670 10672
10597 10599 10601 10603 10604 10604 10606 10607 10607 10608 10609 10609 10607 10605 10605 10605 10604 10602 10600 10599 10598 10598 10598 10599 10599 10599 10600 10600 10600 10599 10599 10599 10598 10598 10598 10597 10597 10596 10596 10597 10597 10598 10598 10599 10600 10601 10602 10603 10604 10605 10607 10608 10610 10611 10614 10616 10619 10621 10623 10626 10628 10630 10632 10634 10636 10638 10639 10641 10642 10643 10644 10646 10648 10649 10650 10652 10655 10656 10658 10660 10662 10663 10665 10667 10668